Regional Weather Roundup
Issued by NWS

Home | Current Version | Previous Version | Graphics & Text | Print | Product List | Glossary On
Versions: 1 2 3 4 5 6 7 8 9 10 11 12 13 14 15 16 17 18 19 20 21 22 23 24 25 26 27 28 29 30 31 32 33 34 35 36 37 38 39 40 41 42 43 44 45 46 47 48 49 50
000
ASUS43 KMPX 222301
RWRMN
WEATHER ROUNDUP FOR MINNESOTA
NATIONAL WEATHER SERVICE TWIN CITIES/CHANHASSEN MN
500 PM CST WED FEB 22 2017


NOTE: "FAIR" INDICATES FEW OR NO CLOUDS BELOW 12,000 FEET WITH NO
SIGNIFICANT WEATHER AND/OR OBSTRUCTIONS TO VISIBILITY. N/A MEANS
CURRENT SKY AND/OR WEATHER CONDITIONS ARE NOT AVAILABLE.

MNZ060>063-068>070-230000-
   Twin Cities Metro

CITY           SKY/WX    TMP DP  RH WIND       PRES   REMARKS
TWIN CITIES    PTCLDY    54  44  69 NW16      29.57R
ST PAUL        PTCLDY    57  44  62 W7        29.56R
CRYSTAL        PTCLDY    49  43  80 W6        29.56R
BLAINE         PTCLDY    52  45  76 NW6       29.57R
LAKEVILLE      CLEAR     55  46  71 W13       29.56R
EDEN PRAIRIE   CLOUDY    51  44  77 NW9       29.56R
SOUTH ST PAUL  PTCLDY    57  43  58 W6        29.55R
LAKE ELMO      FAIR      55  45  67 SW3       29.56R
$$
MNZ001>005-007-008-013>017-022>024-027-028-230000-
   Northwest Minnesota

CITY           SKY/WX    TMP DP  RH WIND       PRES   REMARKS
BEMIDJI        LGT SNOW  31  30  95 N15       29.73R WCI  20
HALLOCK        PTCLDY    34  30  86 N12       29.85R WCI  25
ROSEAU         CLOUDY    34  25  69 N14       29.80R WCI  24
WARROAD        MOCLDY    36  25  64 N8        29.80R
THIEF RVR FALL CLOUDY    32  24  72 N14       29.81R WCI  22
CROOKSTON      CLOUDY    34  27  75 N13       29.83R WCI  25
FOSSTON        CLOUDY    30  28  93 N20       29.78R WCI  18
DETROIT LAKES  LGT SNOW  32  32 100 N15G22    29.75R WCI  22
MOORHEAD       CLOUDY    34  30  86 N20G31    29.80R WCI  22
PARK RAPIDS    LGT SNOW  34  30  85 N15       29.69R FOG     WCI  24
MAHNOMEN       LGT SNOW  32  31  96 N20       29.76R WCI  20
$$
MNZ006-009>011-018-025>026-230000-
   North Central Minnesota

CITY           SKY/WX    TMP DP  RH WIND       PRES   REMARKS
BAUDETTE       CLOUDY    32  23  69 N13G18    29.77R WCI  22
FLAG ISLAND    PTCLDY    32  21  64 NW14      29.78R WCI  22
INTL FALLS     CLOUDY    33  28  81 N13       29.72R WCI  24
WASKISH        CLOUDY    32  28  86 N9        29.76R WCI  24
BIG FORK       LGT SNOW  34  30  86 N6        29.70R VSB 1   WCI  29
LONGVILLE      LGT SNOW  32  32 100 N3        29.68R VSB 1
GRAND RAPIDS   LGT SNOW  32  31  96 NW14      29.69R VSB 1   WCI  22
CRANE LAKE     FLURRIES  34  30  86 N7        29.70R WCI  28
ORR            LGT SNOW  34  30  86 CALM      29.66R
COOK           CLOUDY    36  30  80 N8        29.66R
WALKER         LGT SNOW  32  31  96 N8        29.70R WCI  25
$$
MNZ012-019>021-037-230000-
   Northeast Minnesota

CITY           SKY/WX    TMP DP  RH WIND       PRES   REMARKS
DULUTH         LGT RAIN  38  33  82 SE13      29.56S
ELY            MOCLDY    37  30  75 N5        29.63S
HIBBING        LGT SNOW  33  33 100 N10       29.64R FOG     WCI  25
EVELETH        LGT SNOW  35  33  91 N5        29.64R WCI  31
DULUTH HARBOR  LGT RAIN  36  34  93 CALM      29.63R
TWO HARBORS    CLOUDY    41  34  75 NE5G10    29.57S
SILVER BAY     CLOUDY    39  32  75 NE5       29.60R
GRAND MARAIS     N/A     38  33  82 VRB3      29.63F
G MARAIS ARPRT CLOUDY    37  27  65 N9        29.61S
$$
MNZ029>031-032-039>041-046>048-054>057-064-230000-
   West Central Minnesota

CITY           SKY/WX    TMP DP  RH WIND       PRES   REMARKS
FERGUS FALLS   LGT RAIN  34  34 100 N13G22    29.77R WCI  25
WHEATON        FLURRIES  34  30  86 NW14G21   29.78R WCI  24
MORRIS         LGT RAIN  37  37 100 NW17      29.70R
ALEXANDRIA     CLOUDY    39  37  92 N10       29.68R
ELBOW LAKE     LGT SNOW  34  34  99 N13       29.72R WCI  25
WADENA         LGT RAIN  34  32  93 N13       29.69R WCI  25
GLENWOOD       CLOUDY    39  36  87 N15G22    29.67R
APPLETON       CLOUDY    39  36  87 NW17G23   29.71R
BENSON         CLOUDY    43  36  75 N16G23    29.71R
ORTONVILLE     DRIZZLE   37  34  87 N18       29.73R
MADISON        CLOUDY    43  39  87 NW16G24   29.72R
WILLMAR        FAIR      48  43  81 NW17      29.65R
$$
MNZ033>034-036-042>043-049>051-058-059-230000-
   Central Minnesota

CITY           SKY/WX    TMP DP  RH WIND       PRES   REMARKS
ST CLOUD       CLOUDY    48  40  73 N13       29.59R
SAUK CENTRE    CLOUDY    41  36  83 NW16      29.64R
PAYNESVILLE    CLOUDY    46  40  81 NW14G20   29.63R
AITKIN         MIX PCPN  37  34  87 NW12G18   29.64R
PINE RIVER     LGT SNOW  32  32 100 N9        29.71R WCI  24
BRAINERD       LGT RAIN  36  34  92 NW13      29.65R
STAPLES        FLURRIES  34  34 100 N13       29.67R WCI  25
LONG PRAIRIE   MIX PCPN  37  36  93 NW14G21   29.66R
LITTLE FALLS   CLOUDY    39  34  81 N7        29.64R
LITCHFIELD     CLOUDY    52  43  71 NW9       29.61R
BUFFALO        CLEAR     51  42  71 W6        29.59S
MAPLE LAKE     PTCLDY    53  44  71 NW5       29.59R
HUTCHINSON     MOCLDY    51  47  86 W14       29.60R
$$
MNZ037-044-045-052-053-230000-
   East Central Minnesota

CITY           SKY/WX    TMP DP  RH WIND       PRES   REMARKS
PRINCETON      MOCLDY    54  43  66 NW5       29.58R
MORA           CLEAR     46  36  66 N3        29.60R
CAMBRIDGE      MOCLDY    54  41  62 NW5       29.56R
RUSH CITY      CLOUDY    52  39  62 N5        29.56S
MOOSE LAKE     DRIZZLE   41  36  81 NE6       29.59S
HINCKLEY       MOCLDY    46  37  71 N13       29.58F
CLOQUET        RAIN      39  32  75 CALM      29.63R
MCGREGOR       CLOUDY    37  36  93 NW9       29.63R
$$
MNZ071>073-080-081-089-090-097-098-230000-
   Southwest Minnesota

CITY           SKY/WX    TMP DP  RH WIND       PRES   REMARKS
MONTEVIDEO     CLOUDY    41  37  87 N18G25    29.71R
GRANITE FALLS  MOCLDY    46  41  83 NW24      29.69R
CANBY          CLOUDY    42  38  84 NW17G23   29.73R
MARSHALL       MOCLDY    44  39  82 NW20      29.68R
REDWOOD FALLS  MOCLDY    47  39  74 NW12      29.63R
OLIVIA         PTCLDY    46  41  81 NW14      29.64R
PIPESTONE      MOSUNNY   52  37  58 NW16G25   29.67R
WINDOM         CLEAR     50  45  81 NW20      29.64R
WORTHINGTON    CLEAR     52  45  77 NW20      29.65R
JACKSON          N/A     57  43  58 W15       29.63R
TRACY          PTCLDY    44  40  88 NW17      29.67R
SLAYTON        PTCLDY    47  42  85 NW15      29.66R
$$
MNZ065>067-074>077-082>085-091>093-230000-
   South Central Minnesota

CITY           SKY/WX    TMP DP  RH WIND       PRES   REMARKS
MANKATO          N/A     58  48  69 NW14      29.59R
NEW ULM        CLEAR     52  45  76 NW20      29.61R
ST JAMES       PTCLDY    54  46  76 NW20G26   29.63R
FAIRMONT       CLEAR     61  45  55 W12       29.60R
GLENCOE        CLOUDY    54  50  87 W13       29.58R
FARIBAULT      CLEAR     59  46  63 SW8       29.58R
OWATONNA       CLEAR     57  46  67 SW7       29.58R
WASECA         CLEAR     55  46  71 W12       29.59R
ALBERT LEA     CLEAR     59  46  63 W7        29.59R
$$
MNZ078>079-086>088-094>096-230000-
   Southeast Minnesota

CITY           SKY/WX    TMP DP  RH WIND       PRES   REMARKS
ROCHESTER      CLEAR     56  47  71 SW3       29.57S
RED WING       PTCLDY    57  41  54 SW3       29.54R
STANTON        CLEAR     59  47  65 SW6       29.54R
DODGE CENTER   CLEAR     55  46  71 SW6       29.57S
WINONA         PTCLDY    57  41  54 W3        29.57R
AUSTIN         CLEAR     57  45  62 W7        29.58R
PRESTON        CLEAR     54  44  68 W10       29.59R
$$
ABBREVIATIONS USED IN REMARKS
   TC - TEMPERATURES IN CELSIUS
  WCI - WIND CHILL INDEX
   HX - HEAT INDEX
  VSB - VISIBILITY
$$



USA.gov is the U.S. government's official web portal to all federal, state and local government web resources and services.